Theta_e
317 320 319 317 318 318 318 318 318 317 317 318 320 321 321 322 322 323 323 324 325 325 325 324 325 328 337 348 354 357 356 355 353 352 351 350 350 349 348 348 348 348 348 347
313 317 317 316 316 317 317 318 318 317 316 317 318 319 319 319 319 320 321 322 323 324 325 326 325 325 337 349 354 357 356 355 354 353 351 349 349 349 349 348 348 349 349 348
310 311 312 314 316 316 318 318 318 318 317 318 318 319 319 319 320 320 320 320 321 323 324 325 326 326 328 346 354 356 356 356 355 352 351 350 349 348 347 346 347 349 349 349
309 309 309 309 311 314 319 317 318 317 318 321 319 321 319 319 320 320 321 321 320 319 322 324 325 326 328 337 350 353 357 357 355 353 351 350 348 347 345 345 345 347 349 348
309 308 308 308 309 312 314 317 318 322 322 321 320 321 319 319 320 321 322 321 320 320 319 321 324 325 325 330 340 351 355 357 356 354 351 352 348 346 345 343 344 347 348 348
308 308 308 308 309 309 310 314 318 321 322 329 323 321 320 319 320 321 322 321 320 320 320 320 321 322 324 327 334 345 352 356 355 354 352 351 349 345 343 343 343 346 346 347
308 308 308 309 311 311 312 315 324 324 328 328 320 320 320 318 319 320 320 321 321 320 320 320 320 322 325 325 331 345 350 354 355 354 353 350 349 347 345 347 344 342 344 345
311 310 309 309 310 311 312 312 323 321 325 324 318 320 320 318 319 319 319 320 320 321 320 320 321 322 324 324 328 338 348 351 354 353 353 351 350 347 346 346 344 345 347 348
313 311 310 309 311 312 312 313 314 320 322 320 320 318 318 317 318 318 320 320 321 322 322 321 321 323 324 324 326 336 342 348 351 349 352 352 351 349 347 345 346 347 350 353
311 314 309 310 311 312 313 313 317 322 321 323 316 317 316 317 318 320 319 319 321 323 323 323 323 323 323 324 324 333 342 348 351 351 350 353 352 350 348 347 348 353 350 351
311 315 312 309 314 317 317 315 315 319 320 318 315 317 321 322 322 322 324 325 325 324 324 324 325 325 324 325 323 326 337 342 348 350 351 351 352 350 349 350 352 350 351 351
311 313 314 312 310 314 315 316 320 321 318 318 319 317 320 321 321 324 324 322 322 323 323 324 324 325 326 326 326 323 330 337 341 345 347 350 352 351 353 352 351 350 350 347
311 314 315 315 320 316 316 316 319 318 321 326 322 319 319 320 321 321 321 320 319 320 321 323 325 326 326 327 328 326 325 332 336 342 345 348 351 352 353 349 351 351 348 346
311 314 315 317 315 314 315 315 316 318 322 321 320 319 319 319 319 319 320 319 319 319 322 322 324 327 327 327 330 328 325 331 334 341 344 347 350 354 349 350 351 351 348 345
312 314 313 313 312 312 312 313 313 314 316 319 318 317 318 318 318 318 318 321 320 321 324 323 324 327 328 328 330 333 326 331 333 339 343 349 352 351 349 350 349 347 344 337
310 313 313 315 313 313 315 315 313 314 316 316 317 318 316 318 320 321 322 323 325 324 326 326 327 328 329 330 328 335 328 334 335 338 343 347 344 342 343 343 341 338 333 330
310 314 315 317 315 314 321 320 317 316 315 318 319 317 318 318 318 321 320 318 318 319 321 324 329 328 330 332 329 334 330 338 339 343 337 335 336 335 335 334 333 330 326 323
313 313 313 316 317 326 320 315 314 314 312 312 316 316 315 318 318 314 313 314 315 314 316 319 323 326 327 333 331 334 333 343 340 332 330 329 331 329 328 328 327 325 323 322
312 310 315 318 319 318 320 314 313 312 311 313 310 311 312 316 317 310 310 311 312 312 313 313 316 321 328 336 335 338 342 336 331 327 325 325 323 324 324 325 323 321 319 317
313 310 312 315 319 322 319 312 310 310 317 312 313 313 312 310 318 309 309 309 309 309 311 312 315 321 325 328 330 329 326 325 324 322 320 320 320 320 321 320 319 317 317 314
316 316 316 319 321 318 313 310 309 321 319 312 312 309 307 308 308 307 307 307 308 308 308 308 309 313 316 321 321 321 320 319 318 317 317 317 317 315 315 315 315 313 313 311
316 316 316 317 320 319 309 307 310 311 313 312 309 307 305 306 305 306 306 307 307 307 307 306 305 306 310 314 314 314 313 312 312 312 310 311 311 312 311 312 311 310 310 308
317 312 312 313 316 310 308 304 311 312 312 310 309 308 307 307 306 306 305 305 305 306 306 305 305 304 304 308 311 311 310 310 309 308 309 308 309 309 309 309 308 307 307 307
311 310 313 314 311 308 305 307 310 309 309 308 308 307 306 305 305 305 305 305 304 305 305 305 304 304 302 302 306 308 308 307 307 306 306 306 306 305 306 306 307 306 306 306
310 311 311 312 309 307 305 306 308 308 307 306 305 305 304 304 303 303 304 305 304 304 304 304 304 303 302 301 301 302 305 306 306 305 305 304 304 304 303 303 305 304 304 305
311 312 310 311 308 306 305 304 305 306 306 304 304 303 302 302 302 303 304 304 304 304 303 303 302 302 302 301 299 299 300 302 302 302 301 302 302 302 300 298 297 299 301 302
Wind_Speed
7 12 17 21 19 19 21 23 22 21 13 17 17 20 19 18 15 18 17 16 15 15 14 16 14 20 24 26 31 34 36 35 35 34 33 29 28 27 25 24 22 22 22 21
13 14 20 16 14 18 22 24 24 22 18 18 20 25 23 22 22 22 22 21 19 19 18 16 16 16 22 27 31 33 37 37 39 36 33 30 29 27 24 23 22 22 22 22
14 18 18 15 20 21 23 23 23 23 20 19 19 25 24 24 25 23 25 25 25 23 21 19 16 15 20 27 30 33 37 39 40 35 32 27 25 23 24 25 23 22 22 23
14 13 11 16 20 22 25 23 23 21 19 16 19 19 18 14 18 21 23 24 26 27 25 22 19 16 19 24 28 32 35 37 39 37 34 35 30 28 26 23 22 21 23 22
20 16 14 17 20 19 17 21 15 20 22 20 24 16 16 17 18 20 20 22 22 25 25 26 23 22 21 23 27 30 33 35 35 38 35 36 32 27 23 22 21 21 21 21
18 14 18 18 18 16 18 18 17 19 15 17 25 21 18 16 19 19 18 17 19 21 22 23 23 25 24 24 27 28 32 34 36 36 36 35 33 27 24 24 22 21 20 22
18 14 4 6 12 11 14 12 6 7 10 15 21 18 19 20 22 18 16 15 15 18 18 19 21 20 22 24 28 28 31 33 34 34 35 34 31 29 26 27 23 23 22 21
9 13 3 11 14 17 16 15 8 10 6 14 21 10 16 16 15 21 22 16 14 14 14 16 16 16 22 25 28 31 32 33 33 32 32 33 32 30 27 25 21 22 22 22
11 8 24 19 10 7 10 16 18 10 18 7 6 13 16 15 13 16 13 15 16 12 11 11 11 11 15 19 26 30 30 32 34 39 25 34 31 29 27 25 24 22 22 29
7 13 11 7 16 18 18 8 6 9 5 6 10 16 9 8 6 7 10 13 11 11 10 11 12 13 10 13 18 27 29 33 34 33 42 41 33 29 26 27 27 28 29 29
13 6 12 17 3 15 6 14 8 7 11 10 12 2 11 5 8 5 6 6 3 1 5 6 8 10 14 11 14 20 27 30 33 36 38 31 29 31 29 29 30 32 29 30
10 5 12 22 12 9 6 3 14 6 14 13 15 7 10 4 3 4 3 5 7 8 8 7 7 7 12 14 13 15 22 27 28 29 29 29 29 31 29 33 35 30 31 31
3 4 9 10 2 3 4 9 8 5 9 11 12 13 5 1 3 3 7 12 12 16 14 12 10 7 8 14 15 14 19 25 28 28 29 29 29 31 31 37 32 33 34 32
8 4 9 11 18 16 18 15 13 9 4 10 14 21 21 15 12 17 16 17 17 17 17 14 13 10 8 12 15 15 17 21 27 28 29 31 31 31 37 37 34 34 32 31
3 8 15 17 21 21 21 20 18 17 17 17 19 21 20 18 20 20 19 17 14 14 15 14 13 12 9 10 15 16 17 19 25 29 29 28 31 34 36 35 33 32 30 28
4 5 14 18 12 9 15 16 16 17 17 19 20 26 19 14 14 18 19 13 13 14 17 15 13 12 13 11 14 15 18 19 24 27 29 31 32 34 36 34 33 30 28 29
4 5 8 6 13 18 7 4 2 5 13 15 12 21 20 19 21 9 5 7 10 12 14 15 14 14 14 15 15 16 21 21 25 23 28 34 34 33 37 36 34 31 29 29
5 5 4 9 14 3 5 4 6 11 19 10 14 14 17 18 4 7 7 7 9 10 11 13 15 15 19 20 17 16 24 22 26 27 27 29 32 32 36 35 35 32 31 30
11 2 5 4 9 12 4 3 10 13 13 6 11 18 17 9 7 5 10 9 8 9 9 10 15 18 19 14 15 13 22 26 26 28 28 28 33 34 35 35 34 34 35 33
3 4 2 4 5 4 6 17 25 10 4 9 17 13 9 10 3 4 10 12 10 9 8 8 11 3 6 11 17 24 20 21 23 29 30 31 34 33 33 35 34 33 33 33
8 4 4 8 4 4 14 28 20 4 6 19 11 11 12 8 7 9 10 8 9 11 12 15 15 11 9 17 27 22 22 22 21 29 36 35 34 36 34 32 31 33 33 32
4 6 5 5 4 6 22 16 11 11 14 9 11 11 11 11 12 13 13 13 13 12 14 19 17 20 20 18 32 24 24 28 28 28 37 36 36 34 34 33 31 32 32 32
3 3 4 3 4 9 14 16 14 12 10 12 11 11 11 13 14 14 14 15 16 15 14 20 21 25 29 27 27 29 25 33 32 35 33 35 37 34 31 31 30 30 29 28
2 4 3 5 5 14 11 16 12 11 13 13 13 13 13 13 14 16 15 15 15 14 15 22 24 23 26 31 29 30 28 31 33 35 34 33 35 35 31 25 25 26 24 24
3 7 8 3 5 11 12 16 13 13 13 15 15 15 14 14 14 14 14 15 15 18 25 28 25 25 28 31 30 27 28 33 32 32 31 33 33 32 29 24 21 21 17 19
3 4 5 3 9 5 7 14 15 13 15 14 13 16 15 14 14 14 14 15 19 20 24 25 26 30 30 29 29 28 28 29 32 28 25 28 29 28 26 28 29 26 24 22
Wind_Direction
278 247 239 249 248 257 278 279 275 275 264 270 261 271 266 261 248 256 251 246 243 243 249 236 238 243 214 203 202 198 196 195 189 195 196 197 202 198 206 208 207 205 203 201
274 263 273 283 280 273 262 259 258 261 260 260 265 264 260 253 256 252 254 252 250 249 241 239 230 232 223 203 203 198 198 193 192 194 195 200 200 205 199 209 206 207 201 200
277 268 266 257 279 283 259 252 258 259 259 247 261 267 262 258 258 253 249 249 251 247 244 236 233 220 229 209 204 201 201 195 193 196 191 194 200 206 204 208 206 204 199 201
285 285 315 268 257 241 250 254 263 263 255 259 251 268 264 259 253 237 239 236 239 243 241 239 229 227 220 218 206 207 203 201 196 194 190 193 194 198 205 204 202 199 198 198
271 296 303 293 277 284 267 264 272 258 261 256 252 253 261 254 255 250 246 238 240 238 236 238 229 218 219 217 210 206 206 203 199 196 198 191 197 200 193 200 194 195 191 191
266 272 274 274 293 281 264 270 270 269 260 245 240 248 253 256 251 243 242 246 235 235 235 238 239 226 215 214 208 201 205 204 200 199 200 198 194 193 189 192 188 188 184 184
320 286 281 285 295 250 239 246 251 238 226 236 223 229 244 250 251 253 256 257 245 241 233 232 230 226 217 203 206 192 203 204 199 201 202 205 202 193 185 180 185 177 178 182
332 318 12 337 309 292 278 234 250 251 284 237 227 220 235 241 257 256 253 255 271 254 231 222 230 232 225 203 208 199 194 201 198 197 204 208 201 195 190 179 175 172 178 169
318 294 321 294 273 304 270 232 241 266 276 255 232 235 250 249 247 253 247 236 241 235 249 245 241 229 237 212 206 202 195 200 194 189 197 216 203 197 192 187 178 173 177 159
303 299 298 323 333 293 238 249 234 221 258 221 236 251 252 164 239 332 230 229 238 238 255 254 239 242 220 221 206 208 197 193 193 193 195 211 198 193 186 182 179 161 160 160
302 238 289 305 251 297 253 228 227 282 269 264 242 120 64 41 315 136 66 72 81 310 308 282 248 245 236 219 209 208 204 194 191 191 195 196 188 187 183 177 159 160 162 162
318 282 293 299 306 280 265 261 273 232 237 244 282 269 119 101 24 34 88 27 346 321 311 309 291 266 250 231 214 203 208 205 195 189 188 188 183 179 173 159 159 164 161 161
318 251 305 325 172 49 340 322 295 199 260 253 256 255 98 56 269 255 311 325 320 316 303 302 293 271 253 239 226 207 200 206 198 189 185 182 180 174 161 156 165 166 162 161
272 229 249 278 301 307 296 289 276 272 278 291 269 276 279 279 290 295 306 307 303 299 294 288 281 278 262 252 238 221 205 198 197 187 185 179 176 166 156 159 166 164 162 160
272 270 276 279 286 285 278 278 279 271 268 267 279 284 284 301 303 302 300 301 289 278 284 277 264 274 281 255 242 232 216 194 191 186 184 174 164 161 156 158 160 157 156 157
283 274 301 292 277 262 296 285 280 289 291 282 289 276 273 295 306 295 295 327 327 310 294 286 269 278 281 261 242 225 217 194 187 184 180 151 152 148 148 147 147 150 153 152
272 295 312 288 316 309 273 43 44 287 290 288 279 283 306 302 291 277 321 337 308 300 296 301 291 288 286 274 240 222 209 186 180 153 140 142 148 144 143 143 144 148 148 145
271 285 281 292 307 315 152 111 340 301 289 287 286 285 277 274 133 56 13 330 312 306 296 290 281 282 285 267 228 220 202 164 145 135 136 142 144 142 139 139 142 146 144 139
207 278 286 294 312 285 130 27 339 333 305 359 311 298 296 347 217 46 6 349 327 320 305 289 279 275 273 265 216 164 139 142 140 136 137 140 138 136 138 140 145 145 138 134
331 189 268 304 304 315 30 335 333 322 250 341 332 4 17 350 132 342 350 7 352 345 339 352 340 315 130 115 123 120 114 124 134 133 130 129 131 133 134 136 141 138 132 124
329 331 266 317 290 266 0 340 323 313 330 329 12 35 37 43 38 21 20 9 359 19 15 27 27 42 49 109 108 101 108 106 120 124 121 122 124 124 127 127 129 126 122 121
317 330 341 318 319 351 351 334 348 284 302 46 50 59 58 52 43 38 31 25 20 29 36 44 47 44 48 83 100 99 97 105 111 112 113 112 114 115 117 119 121 121 124 124
357 351 302 318 313 310 343 317 321 4 49 52 59 53 50 49 47 43 43 34 36 32 43 54 59 57 50 60 89 94 104 109 110 107 106 108 110 110 114 119 122 122 126 125
319 326 280 308 359 333 347 335 1 32 46 51 56 53 47 50 42 43 40 37 44 30 37 53 62 61 59 56 66 85 96 104 106 107 108 109 107 107 109 115 120 123 128 130
312 316 323 269 315 317 359 359 21 31 47 56 54 50 47 48 42 38 38 35 38 37 36 42 54 63 64 62 62 72 90 103 102 104 110 110 109 106 104 98 107 109 113 133
287 333 357 324 353 329 347 7 19 34 45 49 59 58 42 40 44 43 44 48 44 40 41 46 48 56 58 61 64 66 77 94 99 100 101 102 103 106 101 100 96 98 109 114